Météo par heure à Juszczyn

Ce jour, 17 Juin, Jeudi

Heure Température Précipitation Vent Pression Humidité
00:00 +18°C° 0 mm 3 m/s 751 mmHg 89%
01:00 +18°C° 0 mm 2 m/s 751 mmHg 91%
02:00 +17°C° 0 mm 2 m/s 751 mmHg 91%
03:00 +17°C° 0 mm 2 m/s 750 mmHg 91%
04:00 +17°C° 0 mm 3 m/s 750 mmHg 91%
05:00 +18°C° 0 mm 3 m/s 751 mmHg 85%
06:00 +20°C° 0 mm 3 m/s 751 mmHg 79%
07:00 +22°C° 0 mm 3 m/s 751 mmHg 74%
08:00 +23°C° 0 mm 4 m/s 751 mmHg 68%
09:00 +26°C° 0 mm 4 m/s 751 mmHg 63%
10:00 +27°C° 0 mm 4 m/s 751 mmHg 57%
11:00 +28°C° 0 mm 5 m/s 751 mmHg 54%
12:00 +29°C° 0 mm 5 m/s 751 mmHg 51%
13:00 +30°C° 0 mm 5 m/s 751 mmHg 48%
14:00 +30°C° 0 mm 4 m/s 751 mmHg 48%
15:00 +30°C° 0 mm 4 m/s 751 mmHg 48%
16:00 +30°C° 0 mm 3 m/s 750 mmHg 48%
17:00 +28°C° 0 mm 3 m/s 750 mmHg 56%
18:00 +27°C° 0 mm 3 m/s 750 mmHg 63%
19:00 +26°C° 0 mm 3 m/s 750 mmHg 71%
20:00 +24°C° 0 mm 3 m/s 751 mmHg 72%
21:00 +22°C° 0 mm 4 m/s 751 mmHg 73%
22:00 +21°C° 0 mm 4 m/s 751 mmHg 74%
23:00 +20°C° 0 mm 4 m/s 751 mmHg 77%

Demain, 18 Juin, Vendredi

Heure Température Précipitation Vent Pression Humidité
00:00 +19°C° 0 mm 3 m/s 751 mmHg 80%
01:00 +18°C° 0 mm 3 m/s 750 mmHg 83%
02:00 +18°C° 0 mm 3 m/s 750 mmHg 84%
03:00 +18°C° 0 mm 3 m/s 750 mmHg 85%
04:00 +17°C° 0 mm 2 m/s 750 mmHg 86%
05:00 +19°C° 0 mm 2 m/s 751 mmHg 81%
06:00 +21°C° 0 mm 2 m/s 751 mmHg 75%
07:00 +24°C° 0 mm 2 m/s 751 mmHg 70%
08:00 +25°C° 0 mm 2 m/s 751 mmHg 65%
09:00 +27°C° 0 mm 3 m/s 750 mmHg 60%
10:00 +29°C° 0 mm 3 m/s 750 mmHg 56%
11:00 +30°C° 0 mm 3 m/s 750 mmHg 53%
12:00 +30°C° 0 mm 3 m/s 750 mmHg 50%
13:00 +31°C° 0 mm 3 m/s 750 mmHg 47%
14:00 +31°C° 0 mm 3 m/s 750 mmHg 47%
15:00 +31°C° 0 mm 3 m/s 749 mmHg 47%
16:00 +33°C° 0 mm 3 m/s 749 mmHg 47%
17:00 +30°C° 0 mm 3 m/s 749 mmHg 54%
18:00 +29°C° 0 mm 3 m/s 749 mmHg 61%
19:00 +27°C° 0 mm 2 m/s 749 mmHg 68%
20:00 +26°C° 0 mm 2 m/s 749 mmHg 71%
21:00 +24°C° 0 mm 2 m/s 749 mmHg 74%
22:00 +22°C° 0 mm 3 m/s 749 mmHg 77%
23:00 +21°C° 0 mm 3 m/s 749 mmHg 79%

Après-demain, 19 Juin, Samedi

Heure Température Précipitation Vent Pression Humidité
00:00 +21°C° 0 mm 3 m/s 749 mmHg 81%
01:00 +20°C° 0 mm 3 m/s 749 mmHg 83%
02:00 +20°C° 0 mm 2 m/s 749 mmHg 83%
03:00 +19°C° 0 mm 2 m/s 749 mmHg 84%
04:00 +19°C° 0 mm 2 m/s 749 mmHg 84%
05:00 +21°C° 0 mm 2 m/s 749 mmHg 79%
06:00 +24°C° 0 mm 2 m/s 749 mmHg 74%
07:00 +25°C° 0 mm 3 m/s 749 mmHg 70%
08:00 +27°C° 0 mm 3 m/s 749 mmHg 63%
09:00 +29°C° 0 mm 3 m/s 749 mmHg 57%
10:00 +30°C° 0 mm 3 m/s 749 mmHg 51%
11:00 +31°C° 0 mm 2 m/s 749 mmHg 47%
12:00 +32°C° 0 mm 2 m/s 749 mmHg 44%
13:00 +34°C° 0 mm 2 m/s 749 mmHg 40%
14:00 +33°C° 0 mm 1 m/s 748 mmHg 40%
15:00 +33°C° 0 mm 1 m/s 748 mmHg 40%
16:00 +33°C° 0 mm 1 m/s 748 mmHg 40%
17:00 +32°C° 0 mm 1 m/s 748 mmHg 46%
18:00 +30°C° 0 mm 1 m/s 748 mmHg 53%
19:00 +29°C° 0 mm 1 m/s 748 mmHg 60%
20:00 +27°C° 0 mm 2 m/s 748 mmHg 64%
21:00 +26°C° 0 mm 2 m/s 748 mmHg 69%
22:00 +24°C° 0 mm 2 m/s 748 mmHg 73%
23:00 +23°C° 0.3 mm 2 m/s 748 mmHg 79%

20 Juin, Dimanche

Heure Température Précipitation Vent Pression Humidité
00:00 +21°C° 0.3 mm 2 m/s 748 mmHg 84%
01:00 +21°C° 0.3 mm 1 m/s 748 mmHg 90%
02:00 +21°C° 0 mm 1 m/s 748 mmHg 89%
03:00 +21°C° 0 mm 1 m/s 748 mmHg 89%
04:00 +21°C° 0 mm 1 m/s 748 mmHg 88%
05:00 +22°C° 0 mm 1 m/s 748 mmHg 84%
06:00 +23°C° 0 mm 1 m/s 748 mmHg 80%
07:00 +25°C° 0 mm 1 m/s 748 mmHg 76%
08:00 +26°C° 0 mm 1 m/s 748 mmHg 71%
09:00 +28°C° 0 mm 1 m/s 748 mmHg 66%
10:00 +30°C° 0 mm 2 m/s 748 mmHg 61%
11:00 +30°C° 0 mm 2 m/s 748 mmHg 57%
12:00 +31°C° 0 mm 2 m/s 747 mmHg 53%
13:00 +33°C° 0 mm 3 m/s 747 mmHg 50%
14:00 +34°C° 0 mm 3 m/s 747 mmHg 49%
15:00 +34°C° 0 mm 3 m/s 746 mmHg 48%
16:00 +34°C° 0 mm 3 m/s 746 mmHg 47%
17:00 +31°C° 0 mm 3 m/s 746 mmHg 54%
18:00 +30°C° 0 mm 3 m/s 746 mmHg 61%
19:00 +28°C° 0 mm 3 m/s 746 mmHg 68%
20:00 +27°C° 0 mm 3 m/s 745 mmHg 70%
21:00 +26°C° 0 mm 4 m/s 745 mmHg 71%
22:00 +23°C° 0 mm 4 m/s 745 mmHg 72%
23:00 +24°C° 0 mm 3 m/s 745 mmHg 74%

21 Juin, Lundi

Heure Température Précipitation Vent Pression Humidité
00:00 +22°C° 0 mm 3 m/s 745 mmHg 76%
01:00 +21°C° 0 mm 2 m/s 745 mmHg 79%
02:00 +21°C° 0 mm 2 m/s 745 mmHg 79%
03:00 +21°C° 0 mm 2 m/s 745 mmHg 80%
04:00 +21°C° 0 mm 2 m/s 745 mmHg 81%
05:00 +22°C° 0 mm 3 m/s 745 mmHg 77%
06:00 +25°C° 0 mm 3 m/s 745 mmHg 74%
07:00 +26°C° 0 mm 4 m/s 744 mmHg 70%
08:00 +28°C° 0 mm 3 m/s 745 mmHg 64%
09:00 +30°C° 0 mm 3 m/s 745 mmHg 58%
10:00 +31°C° 0 mm 3 m/s 745 mmHg 52%
11:00 +33°C° 0 mm 3 m/s 745 mmHg 50%
12:00 +34°C° 0 mm 3 m/s 744 mmHg 47%
13:00 +34°C° 0 mm 3 m/s 744 mmHg 45%
14:00 +34°C° 0.1 mm 3 m/s 744 mmHg 48%
15:00 +33°C° 0.1 mm 3 m/s 744 mmHg 51%
16:00 +33°C° 0.1 mm 3 m/s 744 mmHg 53%
17:00 +31°C° 0.1 mm 3 m/s 744 mmHg 60%
18:00 +29°C° 0.1 mm 2 m/s 744 mmHg 66%
19:00 +28°C° 0.1 mm 1 m/s 744 mmHg 72%
20:00 +27°C° 0.4 mm 1 m/s 744 mmHg 76%
21:00 +26°C° 0.4 mm 1 m/s 744 mmHg 79%
22:00 +24°C° 0.4 mm 1 m/s 744 mmHg 83%
23:00 +24°C° 0 mm 1 m/s 744 mmHg 84%

22 Juin, Mardi

Heure Température Précipitation Vent Pression Humidité
00:00 +23°C° 0 mm 1 m/s 744 mmHg 86%
01:00 +23°C° 0 mm 2 m/s 744 mmHg 87%
02:00 +23°C° 0 mm 2 m/s 744 mmHg 88%
03:00 +21°C° 0 mm 2 m/s 744 mmHg 89%
04:00 +21°C° 0 mm 2 m/s 744 mmHg 89%
05:00 +23°C° 0.2 mm 2 m/s 744 mmHg 85%
06:00 +24°C° 0.2 mm 2 m/s 744 mmHg 81%
07:00 +26°C° 0.2 mm 2 m/s 744 mmHg 77%
08:00 +27°C° 0.3 mm 2 m/s 744 mmHg 71%
09:00 +29°C° 0.3 mm 2 m/s 744 mmHg 64%
10:00 +30°C° 0.3 mm 2 m/s 744 mmHg 58%
11:00 +30°C° 0.3 mm 2 m/s 744 mmHg 58%
12:00 +30°C° 0.3 mm 2 m/s 744 mmHg 58%
13:00 +30°C° 0.3 mm 2 m/s 744 mmHg 59%
14:00 +29°C° 0.9 mm 3 m/s 745 mmHg 66%
15:00 +27°C° 0.9 mm 3 m/s 745 mmHg 74%
16:00 +25°C° 0.9 mm 3 m/s 745 mmHg 82%
17:00 +25°C° 0.2 mm 4 m/s 745 mmHg 82%
18:00 +25°C° 0.2 mm 4 m/s 745 mmHg 82%
19:00 +23°C° 0.2 mm 4 m/s 745 mmHg 83%
20:00 +22°C° 0.1 mm 3 m/s 746 mmHg 87%
21:00 +21°C° 0.1 mm 3 m/s 746 mmHg 91%
22:00 +20°C° 0.1 mm 2 m/s 746 mmHg 95%
23:00 +20°C° 0 mm 2 m/s 747 mmHg 95%
Voir plus

Nous avons besoin de votre consentement

Meteoprog et ses fournisseurs de services peuvent stocker et accéder à des données personnelles telles que des cookies, des identifiants d'appareils ou d'autres technologies similaires sur votre appareil et traiter ces données pour personnaliser le contenu et les publicités, ainsi que pour fournir des fonctionnalités de médias sociaux et analyser le trafic.

  • Stocker et/ou accéder à des informations sur votre appareil

    Des cookies, des identifiants d'appareils ou d'autres informations peuvent être stockés ou accessibles sur votre appareil aux fins indiquées ci-dessus.

  • Annonces et contenus personnalisés, mesure des annonces et des contenus, connaissance de l'audience et développement de produits

    Les annonces et le contenu peuvent être personnalisés en fonction d'un profil. D'autres données peuvent être ajoutées pour mieux personnaliser les annonces et le contenu. Les performances des publicités et du contenu peuvent être mesurées. Il est possible d'obtenir des informations sur le public qui a vu les publicités et le contenu. Ces données peuvent être utilisées pour développer ou améliorer l'expérience de l'utilisateur, les systèmes et les logiciels.

En cliquant sur "J'accepte", vous autorisez l'utilisation de cookies, des identifiants d'appareils, des balises web ou d'autres technologies similaires. Vos paramètres peuvent être modifiés dans le navigateur de votre appareil.

Dans certains cas, des intérêts légitimes peuvent être invoqués plutôt qu'un consentement. Vous pouvez en savoir plus à ce sujet dans notre Politique de confidentialité et de cookies.